Regional Weather Roundup
Issued by NWS

Home | Current Version | Previous Version | Graphics & Text | Print | Product List | Glossary On
Versions: 1 2 3 4 5 6 7 8 9 10 11 12 13 14 15 16 17 18 19 20 21 22 23 24 25 26 27
000
ASUS45 KBOU 211807
RWRCO

WEATHER ROUNDUP FOR COLORADO
NATIONAL WEATHER SERVICE DENVER/BOULDER CO
1100 AM MST SAT JAN 21 2017

NOTE: "FAIR" INDICATES FEW OR NO CLOUDS BELOW 12000 FEET WITH NO
SIGNIFICANT WEATHER AND/OR OBSTRUCTIONS TO VISIBILITY.

COZ001>005-013-030-031-211900-
...NORTHWEST COLORADO...

CITY           SKY/WX    TMP DP  RH WIND       PRES   REMARKS
CRAIG          CLOUDY    25  18  74 CALM      29.39R
HAYDEN         PTSUNNY   25  16  68 E7        29.38R WCI  17
MEEKER         LGT SNOW  26  22  84 CALM      29.38R FOG
MOUNT WERNER   NOT AVBL
STEAMBOAT SPGS CLOUDY    22  17  80 CALM      29.38R
WALDEN           N/A      9   3  78 E3        29.40S
$$

COZ006>008-011-211900-
...WEST CENTRAL VALLEYS...

CITY           SKY/WX    TMP DP  RH WIND       PRES   REMARKS
GRAND JUNCTION LGT SNOW  33  33 100 E8        29.41R FOG     WCI  26
MONTROSE       LGT SNOW  31  27  85 NW6       29.41R FOG     WCI  25
EAGLE          PTSUNNY   28  16  59 CALM      29.45S
RIFLE          CLOUDY    30  27  88 W3        29.40R
DELTA          CLOUDY    35  33  91 CALM      29.41R
NUCLA          CLOUDY    34  32  93 CALM      29.43R
$$

COZ017>023-064>068-211900-
...SOUTHWEST COLORADO...

CITY           SKY/WX    TMP DP  RH WIND       PRES   REMARKS
DURANGO        SNOW      29  26  89 SW20G29   29.40R VSB 1/2 WCI  16
CORTEZ         LGT SNOW  31  29  92 SW9       29.45R VSB 1   WCI  23
PAGOSA SPRINGS LGT SNOW  30  29  97 SE9       29.39R VSB 3/4 WCI  21
TELLURIDE      NOT AVBL
WOLF CREEK PAS CLOUDY    14  14 100 S14       29.39S WCI  -1
$$

COZ009-010-012-014-032>034-037-058>063-211900-
...CENTRAL COLORADO...

CITY           SKY/WX    TMP DP  RH WIND       PRES   REMARKS
ASPEN          PTSUNNY   27  16  63 N7        29.35R WCI  19
BUENA VISTA    CLOUDY    24  13  61 W7        29.39S WCI  16
COPPER MTN     CLOUDY    23  10  58 S8        29.37R WCI  14
BERTHOUD PASS  NOT AVBL
COTTONWOOD PAS FAIR      27  18  69 CALM      29.37S
GUNNISON       FAIR      13   7  77 S5        29.42R WCI   5
KREMMLING      LGT SNOW N/A N/A N/A CALM      29.45S
LEADVILLE      FAIR      18   9  68 CALM      29.36S
MONARCH PASS   CLOUDY    18  14  86 SW6G20    29.46S WCI   9
SALIDA         PTSUNNY   27  15  59 CALM      29.46F
SUNLIGHT       SNOW      19  16  86 MISG      29.40R VSB 1/4
WILKERSON PASS CLOUDY    19  14  79 CALM      29.40S
$$

COZ069>075-211900-
...SAN LUIS VALLEY/SANGRE DE CRISTO MOUNTAINS...

CITY           SKY/WX    TMP DP  RH WIND       PRES   REMARKS
ALAMOSA        CLOUDY    25  19  78 SW3       29.38F
LA VETA PASS   LGT SNOW  25  21  86 NE14G20   29.36F WCI  13
SAGUACHE       CLOUDY    25  21  86 NW5       29.39F WCI  19
$$

COZ035-036-038>040-211900-
...NORTHERN COLORADO FRONT RANGE...

CITY           SKY/WX    TMP DP  RH WIND       PRES   REMARKS
DENVER INTL AP PTSUNNY   35  26  69 W6        29.38F WCI  30
DMNS CITY PARK   N/A     38  24  57 N7        29.38F
AURORA         PTSUNNY   34  19  54 W6        29.38S WCI  29
FRONT RANGE AP PTSUNNY   37  25  60 NW3       29.39S
ERIE MUNI ARPT FAIR      35  25  66 N5        29.40S WCI  31
BOULDER MUN AP FAIR      34  27  75 CALM      29.39S
CENTENNIAL     FAIR      35  21  56 NW3       29.37F
BROOMFIELD     PTSUNNY   36  27  69 N8        29.39S
FORT COLLINS   FAIR      30  27  86 CALM      29.41S
LONGMONT       FAIR      37  27  67 NW3       29.41F
$$

COZ041-046-047-076>085-087-088-211900-
...PIKES PEAK/PALMER DIVIDE AND SOUTHERN FOOTHILLS...

CITY           SKY/WX    TMP DP  RH WIND       PRES   REMARKS
COLO. SPRINGS  PTSUNNY   39  22  50 CALM      29.37F
A. F. ACADEMY  FAIR      32  20  61 NW3       29.36S
SCHRIEVER AFB  NOT AVBL
ELLICOTT       FAIR     N/A N/A N/A CALM      29.35S
FALCON         FAIR      38  19  47 CALM      29.37F
FORT CARSON    NOT AVBL
LIMON          FAIR      31  29  92 SE8       29.39F WCI  23
MONUMENT HILL  FAIR      32  18  55 CALM      29.37F
TRINIDAD       CLOUDY    34  21  59 N5        29.34F WCI  30
$$

COZ042>045-048>051-090-091-211900-
...NORTHEAST COLORADO...

CITY           SKY/WX    TMP DP  RH WIND       PRES   REMARKS
GREELEY ARPT   PTSUNNY   30  28  92 NE3       29.42F
AKRON          FAIR      40  24  53 SE17      29.41S
BURLINGTON     FAIR      39  35  86 SE8       29.41S
WRAY           NOT AVBL
STERLING       FAIR      36  28  75 CALM      29.42S
HOLYOKE        FAIR      43  25  49 CALM      29.44S
FORT MORGAN    FAIR      37  29  73 SE3       29.42F
$$

COZ086-089-092>099-211900-
...SOUTHEAST COLORADO...

CITY           SKY/WX    TMP DP  RH WIND       PRES   REMARKS
PUEBLO         CLOUDY    32  30  92 SW6       29.38F WCI  26
LA JUNTA       CLOUDY    29  27  92 NW3       29.39F FOG
LAMAR          FAIR      32  29  88 W7        29.38F WCI  26
SPRINGFIELD      N/A     42  28  57 E3        29.34F
$$




USA.gov is the U.S. government's official web portal to all federal, state and local government web resources and services.